Voltar ao catálogo

COSMOS 1526

AtivoMilitarLEO
NORAD 14615·PAYLOAD·🇷🇺 Russia

Lançado Jan 5, 1984 de Plesetsk Cosmodrome

Loading…

Próximas Passagens (próximas 24 horas)

TLE

AtualizadoSource: Space-Track

Época: Sep 14, 2026, 22:34 UTC

1 14615U 84001E   26257.94055003 -.00000028  00000-0 -76006-4 0  9993
2 14615  74.0055  72.4763 0012408 328.1128 186.1941 12.53057148952821

Acompanhe COSMOS 1526 em tempo real com AllMySat

Download on the App Store